Flag for U.S.A. Weather past 2 weeks in Gainesville, Florida, U.S.A.

Now
73 °F

Clear.


Feels Like: 69 °F
Forecast: 71 / 84 °F
Wind: No wind

Location: Gainesville Regional Airport

Current Time: Sep 3, 2014 at 4:57:44 AM

Latest Report: Sep 3, 2014 at 3:53 AM


Visibility: 7 mi

Pressure: 30.00 "Hg

Humidity: 97%

Dew point: 72 °F

Location of GainesvilleLocation

Historic Weather in Gainesville — Graph

°F

Gainesville temperature yesterday

Maximum temperature yesterday: 88 °F (at 12:53 PM)
Minimum temperature yesterday: 72 °F (at 4:53 AM)
Average temperature yesterday: 79 °F

Past Weeks' High & Low Weather Summary

 TemperatureHumidityPressure
High97 °F (Aug 23, 3:53 PM)100% (Aug 19, 5:53 AM)30.15 "Hg (Aug 19, 5:53 AM)
Low64 °F (Aug 28, 5:53 AM)37% (Aug 28, 3:53 PM)29.81 "Hg (Aug 24, 5:53 PM)
Average80 °F79%30.01 "Hg
* Reported Aug 19 2:53 AM — Sep 3 2:53 AM, Gainesville, Weather by CustomWeather, © 2014

Note: Actual official high and low records may vary slightly from our data, if they occured in-between our weather recording intervals... More about our weather records

Advertising

Gainesville weather history for previous 24 hours

 ConditionsComfort  
Time TempWeatherWind HumidityBarometerVisibility
2:53 AM
Sep 3
74 °FPassing clouds.3 mph97%30.01 "Hg8 mi
1:53 AM75 °FClear.No wind94%30.02 "Hg10 mi
12:53 AM75 °FPassing clouds.3 mph96%30.04 "Hg9 mi
11:53 PM
Sep 2
75 °FPassing clouds.No wind96%30.03 "Hg9 mi
10:53 PM75 °FPassing clouds.No wind96%30.04 "Hg9 mi
9:53 PM75 °FClear.No wind94%30.02 "Hg9 mi
8:53 PM76 °FLight rain. Passing clouds.3 mph94%30.03 "Hg10 mi
7:53 PM76 °FLight rain. Passing clouds.9 mph94%30.00 "Hg9 mi
7:01 PM75 °FLight rain. Fog.3 mph90%30.00 "Hg6 mi
6:04 PM81 °FThunderstorms. Broken clouds.8 mph79%30.01 "Hg10 mi
5:53 PM81 °FThundershowers. Broken clouds.10 mph85%29.99 "Hg10 mi
4:53 PM84 °FSunny.5 mph77%29.98 "Hg10 mi
3:53 PM86 °FThundershowers. Scattered clouds.3 mph67%30.00 "Hg10 mi
2:53 PM86 °FLight rain. Mostly cloudy.6 mph72%30.03 "Hg9 mi
1:53 PM88 °FCloudy.3 mph63%30.06 "Hg10 mi
12:53 PM88 °FPartly sunny.5 mph61%30.08 "Hg10 mi
11:53 AM87 °FPassing clouds.No wind67%30.10 "Hg10 mi
10:53 AM85 °FSunny.No wind70%30.10 "Hg10 mi
9:53 AM82 °FPassing clouds.No wind79%30.10 "Hg10 mi
8:53 AM78 °FSunny.No wind90%30.09 "Hg10 mi
7:53 AM74 °FClear.No wind94%30.09 "Hg10 mi
6:53 AM72 °FClear.No wind100%30.07 "Hg10 mi
5:53 AM72 °FClear.No wind97%30.04 "Hg10 mi
4:53 AM72 °FClear.No wind100%30.02 "Hg10 mi
Weather by CustomWeather, © 2014

See weather overviewHow to use our weather pages